Location: Poigny-la-Forêt
(48.6876°N, 1.7701°E)
Time: 20:54:00
(UTC+01:00)

ISS - Pass Details

Date: 29 October 2019
Orbit: 412 x 421 km, 51.6° (Epoch: 13 November)

Event Time Altitude Azimuth Distance (km) Brightness Sun altitude
Exits shadow 06:30:41 15° 253° (WSW) 1,245 -1.9 -11.0°
Maximum altitude 06:33:26 82° 340° (NNW) 430 -3.8 -10.5°
Drops below altitude 10° 06:36:49 10° 69° (ENE) 1,507 0.1 -10.0°
Sets 06:38:55 0° 70° (ENE) 2,371 1.2 -9.6°
